Meteo Giornale » Osservazioni meteo Finlandia » Ivalo
ore: 22:20 - Osservazioni Meteo Ivalo
Lat. 68° 37' N Lon. 27° 25' E Alt. 147 metri s.l.m.
14 °C
Pioggia
Temp. 24 Ore
14 °C
19 °C
Nord/Nord-Est
9.3 Km/h
Dew point 13 °C
Umidità 93 %
Visibilità 10 Km
Il sole sorge alle ore 05:30
Il sole tramonta alle ore 20:51
| Data e Ora | Cielo e Fenomeni | T °C | DP °C | Um. % | Pres. hPa | Vis. km | Vento km/h | |
|---|---|---|---|---|---|---|---|---|
| Oggi h: 22:20 | Pioggia | 14 | 13 | 93 | 1005 | 10 | N/NE 9.3 | |
| Oggi h: 21:50 | Coperto | 15 | 13 | 87 | 1005 | 10 | N 3.7 | |
| Oggi h: 21:20 | Molto Nuvoloso | 15 | 13 | 87 | 1005 | 10 | N 3.7 | |
| Oggi h: 20:50 | Nuvoloso | 16 | 13 | 82 | 1005 | 10 | N 5.5 | |
| Oggi h: 20:20 | Molto Nuvoloso | 16 | 13 | 82 | 1004 | 10 | N 3.7 | |
| Oggi h: 19:50 | Sereno | 16 | 13 | 82 | 1004 | 10 | S/SO 7.4 | |
| Oggi h: 19:20 | Nuvoloso | 17 | 12 | 72 | 1004 | 10 | S 13 | |
| Oggi h: 18:50 | Molto Nuvoloso | 18 | 11 | 63 | 1004 | 10 | SO 11.1 | |
| Oggi h: 18:20 | Nuvoloso | 19 | 11 | 59 | 1004 | 10 | O/SO 11.1 | |
| Oggi h: 17:50 | Molto Nuvoloso | 18 | 11 | 63 | 1004 | 10 | O 14.8 | |
| Oggi h: 17:20 | Poco Nuvoloso | 18 | 11 | 63 | 1004 | 10 | SO 16.7 | |
| Oggi h: 16:50 | Molto Nuvoloso | 18 | 12 | 67 | 1004 | 10 | SO 16.7 | |
| Oggi h: 16:20 | Molto Nuvoloso | 18 | 11 | 63 | 1004 | 10 | O/SO 16.7 | |
| Oggi h: 15:50 | Molto Nuvoloso | 19 | 12 | 63 | 1004 | 10 | O 14.8 | |
| Oggi h: 15:20 | Sereno | 18 | 12 | 67 | 1003 | 10 | O 16.7 | |
| Oggi h: 14:50 | Sereno | 18 | 12 | 67 | 1003 | 10 | SO 14.8 | |
| Oggi h: 14:20 | Molto Nuvoloso | 17 | 13 | 77 | 1004 | 10 | O/SO 11.1 | |
| Oggi h: 13:50 | Molto Nuvoloso | 17 | 12 | 72 | 1003 | 10 | O/SO 16.7 | |
| Oggi h: 13:20 | Pioggia | 16 | 14 | 87 | 1003 | 10 | O 14.8 | |
| Oggi h: 12:50 | Molto Nuvoloso | 17 | 12 | 72 | 1003 | 10 | O/SO 18.5 | |
| Oggi h: 12:20 | Nuvoloso | 18 | 12 | 67 | 1003 | 10 | SO 20.3 | |
| Oggi h: 11:50 | Nuvoloso | 17 | 13 | 77 | 1003 | 10 | SO 16.7 | |
| Oggi h: 11:20 | Coperto | 17 | 13 | 77 | 1003 | 10 | SO 16.7 | |
| Oggi h: 10:50 | Molto Nuvoloso | 16 | 13 | 82 | 1003 | 10 | S/SO 11.1 | |
| Oggi h: 10:20 | Molto Nuvoloso | 16 | 13 | 82 | 1003 | 10 | S 13 | |
| Oggi h: 09:50 | Coperto | 16 | 13 | 82 | 1003 | 10 | S/SO 11.1 | |
| Oggi h: 09:20 | Coperto | 16 | 13 | 82 | 1003 | 10 | S 11.1 | |
| Oggi h: 08:50 | Coperto | 15 | 13 | 87 | 1003 | 10 | S 11.1 | |
| Oggi h: 08:20 | Coperto | 15 | 13 | 87 | 1003 | 10 | S 11.1 | |
| Oggi h: 07:50 | Coperto | 15 | 13 | 87 | 1003 | 10 | S 11.1 | |
| Oggi h: 07:20 | Coperto | 15 | 13 | 87 | 1003 | 10 | S/SO 9.3 | |
| Oggi h: 06:50 | Coperto | 15 | 13 | 87 | 1003 | 10 | S 11.1 | |
| Oggi h: 06:20 | Coperto | 15 | 13 | 87 | 1003 | 10 | S 13 | |
| Oggi h: 05:50 | Pioggia | 15 | 13 | 87 | 1003 | 10 | S 14.8 | |
| Oggi h: 05:20 | Molto Nuvoloso | 15 | 13 | 87 | 1003 | 10 | S 14.8 | |
| Oggi h: 04:50 | Coperto | 15 | 13 | 87 | 1003 | 10 | S 13 | |
| Oggi h: 04:20 | Coperto | 15 | 13 | 87 | 1003 | 10 | S 13 | |
| Oggi h: 03:50 | Molto Nuvoloso | 15 | 13 | 87 | 1003 | 10 | S 13 | |
| Oggi h: 03:20 | Molto Nuvoloso | 15 | 13 | 87 | 1003 | 10 | S 13 | |
| Oggi h: 02:50 | Pioggia | 15 | 13 | 87 | 1003 | 10 | S 11.1 | |
| Oggi h: 02:20 | Pioggia | 15 | 13 | 87 | 1003 | 10 | S 11.1 | |
| Oggi h: 01:50 | Coperto | 15 | 13 | 87 | 1003 | 10 | S 11.1 | |
| Oggi h: 01:20 | Molto Nuvoloso | 15 | 13 | 87 | 1003 | 10 | S 11.1 | |
| Oggi h: 00:50 | Coperto | 15 | 13 | 87 | 1003 | 10 | S 9.3 | |
| Oggi h: 00:20 | Coperto | 15 | 13 | 87 | 1003 | 10 | S/SE 7.4 | |
| Ieri h: 23:50 | Pioggia | 14 | 13 | 93 | 1003 | 10 | S 9.3 | |
| Ieri h: 23:20 | Coperto | 14 | 13 | 93 | 1003 | 10 | S/SE 9.3 | |
| Ieri h: 22:50 | Pioggia | 14 | 13 | 93 | 1003 | 10 | S 7.4 | |



